START_TIME,STEP,MOV.,M29,t_acc.,H22,t_acc.,H26,t_acc.,H30,t_acc.
1979-08-05 21:00:30.510 ,0,0,0.,24.0,0.,24.0,0.,24.0,0.,24.0
1979-08-05 21:00:54.510 ,0,1,0.,24.0,0.,24.0,0.,24.0,0.,24.0
1979-08-05 21:01:18.510 ,0,0,0.,24.0,0.,24.0,0.,24.0,0.,24.0
1979-08-05 21:01:42.510 ,1,1,0.,24.0,0.,24.0,0.,24.0,0.,24.0
1979-08-05 21:02:06.510 ,1,0,0.,24.0,0.,24.0,0.,24.0,0.,24.0
1979-08-05 21:02:30.510 ,2,1,0.,24.0,0.,24.0,0.,24.0,0.,24.0
1979-08-05 21:02:54.510 ,2,0,0.,24.0,0.,24.0,0.,24.0,0.,24.0
1979-08-05 21:03:18.510 ,3,1,0.,24.0,0.,24.0,0.,24.0,0.,24.0
1979-08-05 21:03:42.510 ,3,0,0.,24.0,0.,24.0,0.,24.0,0.,24.0
1979-08-05 21:04:06.510 ,4,1,0.,24.0,0.,24.0,0.,24.0,0.,24.0
1979-08-05 21:04:30.510 ,4,0,0.,24.0,0.,24.0,0.,24.0,0.,24.0
1979-08-05 21:04:54.510 ,5,1,0.,24.0,0.,24.0,0.,24.0,0.,24.0
1979-08-05 21:05:18.510 ,5,0,0.,24.0,0.,24.0,0.,24.0,0.,24.0
1979-08-05 21:05:42.510 ,6,1,0.,24.0,0.,24.0,0.,24.0,0.,24.0
1979-08-05 21:06:06.510 ,6,0,0.,24.0,0.,24.0,0.,24.0,0.,24.0
1979-08-05 21:06:30.510 ,7,0,0.,24.0,0.,24.0,0.,24.0,0.,24.0
1979-08-05 21:06:54.510 ,7,0,0.,24.0,0.,24.0,0.,24.0,0.,24.0
1979-08-05 21:07:18.510 ,5,1,1.,24.0,0.,24.0,0.,24.0,0.,24.0
1979-08-05 21:07:42.510 ,1,1,0.,24.0,0.,24.0,0.,24.0,0.,24.0
1979-08-05 21:08:06.510 ,2,1,0.,24.0,0.,24.0,0.,24.0,0.,24.0
1979-08-05 21:08:30.510 ,6,1,0.,24.0,0.,24.0,0.,24.0,0.,24.0
1979-08-05 21:08:54.510 ,5,1,0.,24.0,0.,24.0,0.,24.0,0.,24.0
1979-08-05 21:09:18.510 ,1,1,0.,24.0,0.,24.0,0.,24.0,0.,24.0
1979-08-05 21:09:42.510 ,2,1,0.,24.0,0.,24.0,0.,24.0,0.,24.0
1979-08-05 21:10:06.510 ,6,1,0.,24.0,0.,24.0,0.,24.0,0.,24.0
1979-08-05 21:10:30.510 ,5,1,0.,24.0,0.,24.0,0.,24.0,0.,24.0
1979-08-05 21:10:54.510 ,1,1,0.,24.0,0.,24.0,0.,24.0,0.,24.0
1979-08-05 21:11:18.510 ,2,1,0.,24.0,0.,24.0,0.,24.0,0.,24.0
1979-08-05 21:11:42.510 ,6,1,0.,24.0,0.,24.0,0.,24.0,0.,24.0
1979-08-05 21:12:06.510 ,5,1,0.,24.0,0.,24.0,0.,24.0,0.,24.0
1979-08-05 21:12:30.510 ,1,1,0.,24.0,0.,24.0,0.,24.0,0.,24.0
1979-08-05 21:12:55.110 ,2,1,0.,24.0,0.,24.0,0.,24.0,0.,24.0
1979-08-05 21:13:18.510 ,6,1,0.,24.0,0.,24.0,0.,24.0,0.,24.0
1979-08-05 21:13:42.510 ,5,1,0.,24.0,0.,24.0,0.,24.0,0.,24.0
1979-08-05 21:14:06.510 ,1,1,0.,24.0,0.,24.0,0.,24.0,0.,24.0
1979-08-05 21:14:30.510 ,2,1,0.,24.0,0.,24.0,0.,24.0,0.,24.0
1979-08-05 21:14:54.510 ,6,1,0.,24.0,0.,24.0,0.,24.0,0.,24.0
1979-08-05 21:15:18.510 ,5,1,0.,24.0,0.,24.0,0.,24.0,0.,24.0
1979-08-05 21:15:42.510 ,1,1,0.,24.0,0.,24.0,0.,24.0,0.,24.0
1979-08-05 21:16:06.510 ,2,1,0.,24.0,0.,24.0,0.,24.0,0.,24.0
1979-08-05 21:16:30.510 ,6,1,0.,24.0,0.,24.0,0.,24.0,0.,24.0
1979-08-05 21:16:54.510 ,5,1,0.,24.0,0.,24.0,0.,24.0,0.,24.0
1979-08-05 21:17:18.510 ,1,1,0.,24.0,0.,24.0,0.,24.0,0.,24.0
1979-08-05 21:17:42.510 ,0,0,0.,24.0,0.,24.0,0.,24.0,0.,24.0
1979-08-05 21:18:06.510 ,0,0,0.,24.0,0.,24.0,0.,24.0,0.,24.0
1979-08-05 21:18:30.510 ,5,1,0.,24.0,0.,24.0,0.,24.0,0.,24.0
1979-08-05 21:18:54.510 ,5,0,0.,24.0,0.,24.0,0.,24.0,0.,24.0
1979-08-05 21:19:18.510 ,4,1,0.,24.0,0.,24.0,0.,24.0,0.,24.0
1979-08-05 21:19:42.510 ,4,0,0.,24.0,0.,24.0,0.,24.0,0.,24.0
1979-08-05 21:20:06.510 ,3,1,0.,24.0,0.,24.0,0.,24.0,0.,24.0
1979-08-05 21:20:30.510 ,3,0,0.,24.0,0.,24.0,0.,24.0,0.,24.0
1979-08-05 21:20:54.510 ,2,1,0.,24.0,0.,24.0,0.,24.0,0.,24.0
1979-08-05 21:21:18.510 ,2,0,,0,,0,,0,,0
1979-08-05 21:21:42.510 ,1,1,0.,24.0,0.,24.0,0.,24.0,0.,24.0
1979-08-05 21:22:06.510 ,1,0,0.,24.0,0.,24.0,0.,24.0,0.,24.0
1979-08-05 21:22:30.510 ,0,1,0.,24.0,0.,24.0,0.,24.0,0.,24.0
1979-08-05 21:22:54.510 ,0,0,0.,24.0,0.,24.0,0.,24.0,0.,24.0
1979-08-05 21:23:18.510 ,0,1,0.,24.0,0.,24.0,0.,24.0,0.,24.0
1979-08-05 21:23:42.510 ,0,0,0.,24.0,0.,24.0,0.,24.0,0.,24.0
1979-08-05 21:24:06.510 ,1,1,0.,24.0,0.,24.0,0.,24.0,0.,24.0
1979-08-05 21:24:30.510 ,1,0,0.,24.0,0.,24.0,0.,24.0,0.,24.0
1979-08-05 21:24:54.510 ,2,1,0.,24.0,0.,24.0,0.,24.0,0.,24.0
1979-08-05 21:25:18.510 ,2,0,0.,24.0,0.,24.0,0.,24.0,0.,24.0
1979-08-05 21:25:42.510 ,3,1,0.,24.0,0.,24.0,0.,24.0,0.,24.0
1979-08-05 21:26:06.510 ,3,0,0.,24.0,0.,24.0,0.,24.0,0.,24.0
1979-08-05 21:26:30.510 ,4,1,0.,24.0,0.,24.0,0.,24.0,0.,24.0
1979-08-05 21:26:54.510 ,4,0,0.,24.0,0.,24.0,0.,24.0,0.,24.0
1979-08-05 21:27:18.510 ,5,1,0.,24.0,0.,24.0,0.,24.0,0.,24.0
1979-08-05 21:27:42.510 ,5,0,0.,24.0,0.,24.0,0.,24.0,0.,24.0
1979-08-05 21:28:06.510 ,6,1,0.,24.0,0.,24.0,0.,24.0,0.,24.0
1979-08-05 21:28:30.510 ,0,0,0.,24.0,0.,24.0,0.,24.0,0.,24.0
1979-08-05 21:28:54.510 ,7,1,0.,24.0,0.,24.0,0.,24.0,0.,24.0
1979-08-05 21:29:18.510 ,7,0,0.,24.0,0.,24.0,0.,24.0,0.,24.0
1979-08-05 21:29:42.510 ,7,1,0.,24.0,0.,24.0,0.,24.0,0.,24.0
1979-08-05 21:30:06.510 ,7,0,0.,24.0,0.,24.0,0.,24.0,0.,24.0
1979-08-05 21:30:30.510 ,6,1,0.,24.0,0.,24.0,0.,24.0,0.,24.0
1979-08-05 21:30:54.510 ,6,0,0.,24.0,0.,24.0,0.,24.0,0.,24.0
1979-08-05 21:31:18.510 ,5,1,0.,24.0,0.,24.0,0.,24.0,0.,24.0
1979-08-05 21:31:42.510 ,5,0,0.,24.0,0.,24.0,0.,24.0,0.,24.0
1979-08-05 21:32:06.510 ,4,1,0.,24.0,0.,24.0,0.,24.0,0.,24.0
1979-08-05 21:32:30.510 ,4,0,0.,24.0,0.,24.0,0.,24.0,0.,24.0
1979-08-05 21:32:54.510 ,3,1,0.,24.0,0.,24.0,0.,24.0,0.,24.0
1979-08-05 21:33:18.510 ,3,0,0.,24.0,0.,24.0,0.,24.0,0.,24.0
1979-08-05 21:33:42.510 ,2,1,0.,24.0,0.,24.0,0.,24.0,0.,24.0
1979-08-05 21:34:06.510 ,2,0,0.,24.0,0.,24.0,0.,24.0,0.,24.0
1979-08-05 21:34:30.510 ,1,1,0.,24.0,0.,24.0,0.,24.0,0.,24.0
1979-08-05 21:34:54.510 ,1,0,0.,24.0,0.,24.0,0.,24.0,0.,24.0
1979-08-05 21:35:18.510 ,0,0,0.,24.0,0.,24.0,0.,24.0,0.,24.0
1979-08-05 21:35:42.510 ,0,0,0.,24.0,0.,24.0,0.,24.0,0.,24.0
1979-08-05 21:36:06.510 ,0,1,0.,24.0,0.,24.0,0.,24.0,0.,24.0
1979-08-05 21:36:30.510 ,0,0,0.,24.0,0.,24.0,0.,24.0,0.,24.0
1979-08-05 21:36:54.510 ,1,1,1.,24.0,0.,24.0,0.,24.0,0.,24.0
1979-08-05 21:37:18.510 ,0,0,0.,24.0,0.,24.0,0.,24.0,0.,24.0
1979-08-05 21:37:42.510 ,2,1,0.,24.0,0.,24.0,0.,24.0,0.,24.0
1979-08-05 21:38:06.510 ,2,0,0.,24.0,0.,24.0,0.,24.0,0.,24.0
1979-08-05 21:38:30.510 ,3,1,0.,24.0,0.,24.0,0.,24.0,0.,24.0
1979-08-05 21:38:54.510 ,3,0,0.,24.0,0.,24.0,0.,24.0,0.,24.0
1979-08-05 21:39:18.510 ,4,1,0.,24.0,0.,24.0,0.,24.0,0.,24.0
1979-08-05 21:39:42.510 ,4,0,0.,24.0,0.,24.0,0.,24.0,0.,24.0
1979-08-05 21:40:06.510 ,5,1,0.,24.0,0.,24.0,0.,24.0,0.,24.0
1979-08-05 21:40:30.510 ,5,0,0.,24.0,0.,24.0,0.,24.0,0.,24.0
1979-08-05 21:40:54.510 ,6,1,0.,24.0,0.,24.0,0.,24.0,0.,24.0
1979-08-05 21:41:18.510 ,6,0,1.,24.0,0.,24.0,0.,24.0,0.,24.0
1979-08-05 21:41:42.510 ,7,1,0.,24.0,0.,24.0,0.,24.0,0.,24.0
1979-08-05 21:42:06.510 ,0,0,0.,24.0,0.,24.0,0.,24.0,0.,24.0
1979-08-05 21:42:30.510 ,7,1,0.,24.0,0.,24.0,0.,24.0,0.,24.0
1979-08-05 21:42:54.510 ,7,0,0.,24.0,0.,24.0,0.,24.0,0.,24.0
1979-08-05 21:43:18.510 ,6,1,0.,24.0,0.,24.0,0.,24.0,0.,24.0
1979-08-05 21:43:42.510 ,6,0,0.,24.0,0.,24.0,0.,24.0,0.,24.0
1979-08-05 21:44:06.510 ,5,1,0.,24.0,0.,24.0,0.,24.0,0.,24.0
1979-08-05 21:44:30.510 ,5,0,0.,24.0,0.,24.0,0.,24.0,0.,24.0
1979-08-05 21:44:54.510 ,4,1,0.,24.0,0.,24.0,0.,24.0,0.,24.0
1979-08-05 21:45:18.510 ,4,0,0.,24.0,0.,24.0,0.,24.0,0.,24.0
1979-08-05 21:45:42.510 ,3,1,0.,24.0,0.,24.0,0.,24.0,0.,24.0
1979-08-05 21:46:06.510 ,3,0,0.,24.0,0.,24.0,0.,24.0,0.,24.0
1979-08-05 21:46:30.510 ,2,1,0.,24.0,0.,24.0,0.,24.0,0.,24.0
1979-08-05 21:46:54.510 ,2,0,0.,24.0,0.,24.0,0.,24.0,0.,24.0
1979-08-05 21:47:18.510 ,1,1,0.,24.0,0.,24.0,0.,24.0,0.,24.0
1979-08-05 21:47:42.510 ,1,0,0.,24.0,0.,24.0,0.,24.0,0.,24.0
1979-08-05 21:48:06.510 ,0,1,0.,24.0,0.,24.0,0.,24.0,0.,24.0
1979-08-05 21:48:30.510 ,0,1,1.,24.0,0.,24.0,0.,24.0,0.,24.0
1979-08-05 21:48:54.510 ,0,1,0.,24.0,0.,24.0,0.,24.0,0.,24.0
1979-08-05 21:49:18.510 ,0,0,0.,24.0,0.,24.0,0.,24.0,0.,24.0
1979-08-05 21:49:42.510 ,1,1,0.,24.0,0.,24.0,0.,24.0,0.,24.0
1979-08-05 21:50:06.510 ,1,0,0.,24.0,0.,24.0,0.,24.0,0.,24.0
1979-08-05 21:50:30.510 ,2,1,0.,24.0,0.,24.0,0.,24.0,0.,24.0
1979-08-05 21:50:54.510 ,2,0,0.,24.0,0.,24.0,0.,24.0,0.,24.0
1979-08-05 21:51:18.510 ,3,1,0.,24.0,0.,24.0,0.,24.0,0.,24.0
1979-08-05 21:51:42.510 ,3,0,0.,24.0,0.,24.0,0.,24.0,0.,24.0
1979-08-05 21:52:06.510 ,4,1,0.,24.0,0.,24.0,0.,24.0,0.,24.0
1979-08-05 21:52:30.510 ,4,0,0.,24.0,0.,24.0,0.,24.0,0.,24.0
1979-08-05 21:52:54.510 ,5,1,0.,24.0,0.,24.0,0.,24.0,0.,24.0
1979-08-05 21:53:18.510 ,5,0,0.,24.0,0.,24.0,0.,24.0,0.,24.0
1979-08-05 21:53:42.510 ,6,1,0.,24.0,0.,24.0,0.,24.0,0.,24.0
1979-08-05 21:54:06.510 ,6,0,0.,24.0,0.,24.0,0.,24.0,0.,24.0
1979-08-05 21:54:30.510 ,7,0,0.,24.0,0.,24.0,0.,24.0,0.,24.0
1979-08-05 21:54:54.510 ,7,0,0.,24.0,0.,24.0,0.,24.0,0.,24.0
1979-08-05 21:55:18.510 ,0,0,0.,24.0,0.,24.0,0.,24.0,0.,24.0
1979-08-05 21:55:42.510 ,0,0,0.,24.0,0.,24.0,0.,24.0,0.,24.0
1979-08-05 21:56:06.510 ,2,1,0.,24.0,0.,24.0,0.,24.0,0.,24.0
1979-08-05 21:56:30.510 ,6,1,0.,24.0,0.,24.0,0.,24.0,0.,24.0
1979-08-05 21:56:54.510 ,5,1,0.,24.0,0.,24.0,0.,24.0,0.,24.0
1979-08-05 21:57:18.510 ,1,1,0.,24.0,0.,24.0,0.,24.0,0.,24.0
1979-08-05 21:57:42.510 ,2,1,0.,24.0,0.,24.0,0.,24.0,0.,24.0
1979-08-05 21:58:06.510 ,6,1,0.,24.0,0.,24.0,0.,24.0,0.,24.0
1979-08-05 21:58:30.510 ,5,1,0.,24.0,0.,24.0,0.,24.0,0.,24.0
1979-08-05 21:58:54.510 ,1,1,0.,24.0,0.,24.0,0.,24.0,0.,24.0
1979-08-05 21:59:18.510 ,2,1,0.,24.0,0.,24.0,0.,24.0,0.,24.0
1979-08-05 21:59:42.510 ,6,1,0.,24.0,0.,24.0,0.,24.0,0.,24.0
1979-08-05 22:00:06.510 ,5,1,0.,24.0,0.,24.0,0.,24.0,0.,24.0
1979-08-05 22:00:30.510 ,1,1,0.,24.0,0.,24.0,0.,24.0,0.,24.0
1979-08-05 22:00:54.510 ,2,1,0.,24.0,0.,24.0,0.,24.0,0.,24.0
1979-08-05 22:01:18.510 ,6,1,0.,24.0,0.,24.0,0.,24.0,0.,24.0
1979-08-05 22:01:42.510 ,5,1,0.,24.0,0.,24.0,0.,24.0,0.,24.0
1979-08-05 22:02:06.510 ,1,1,0.,24.0,0.,24.0,0.,24.0,0.,24.0
1979-08-05 22:02:30.510 ,2,1,0.,24.0,0.,24.0,0.,24.0,0.,24.0
1979-08-05 22:02:54.510 ,6,1,0.,24.0,0.,24.0,0.,24.0,0.,24.0
1979-08-05 22:03:18.510 ,5,1,0.,24.0,0.,24.0,0.,24.0,0.,24.0
1979-08-05 22:03:42.510 ,1,1,0.,24.0,0.,24.0,0.,24.0,0.,24.0
1979-08-05 22:04:06.510 ,2,1,0.,24.0,0.,24.0,0.,24.0,0.,24.0
1979-08-05 22:04:30.510 ,6,1,0.,24.0,0.,24.0,0.,24.0,0.,24.0
1979-08-05 22:04:54.510 ,5,1,0.,24.0,0.,24.0,0.,24.0,0.,24.0
1979-08-05 22:05:18.510 ,1,1,0.,24.0,0.,24.0,0.,24.0,0.,24.0
1979-08-05 22:05:42.510 ,0,0,0.,24.0,0.,24.0,0.,24.0,0.,24.0
1979-08-05 22:06:06.510 ,0,0,0.,24.0,0.,24.0,0.,24.0,0.,24.0
1979-08-05 22:06:30.510 ,5,1,0.,24.0,0.,24.0,0.,24.0,0.,24.0
1979-08-05 22:06:54.510 ,5,0,0.,24.0,0.,24.0,0.,24.0,0.,24.0
1979-08-05 22:07:18.510 ,4,1,0.,24.0,0.,24.0,0.,24.0,0.,24.0
1979-08-05 22:07:42.510 ,4,0,0.,24.0,0.,24.0,0.,24.0,0.,24.0
1979-08-05 22:08:06.510 ,3,1,0.,24.0,0.,24.0,0.,24.0,0.,24.0
1979-08-05 22:08:30.510 ,3,0,0.,24.0,0.,24.0,0.,24.0,0.,24.0
1979-08-05 22:08:54.510 ,2,1,0.,24.0,0.,24.0,0.,24.0,0.,24.0
1979-08-05 22:09:18.510 ,2,0,0.,24.0,0.,24.0,0.,24.0,0.,24.0
1979-08-05 22:09:42.510 ,1,1,0.,24.0,0.,24.0,0.,24.0,0.,24.0
1979-08-05 22:10:06.510 ,1,0,0.,24.0,0.,24.0,0.,24.0,0.,24.0
1979-08-05 22:10:30.510 ,0,1,0.,24.0,0.,24.0,0.,24.0,0.,24.0
1979-08-05 22:10:54.510 ,0,0,0.,24.0,0.,24.0,0.,24.0,0.,24.0
1979-08-05 22:11:18.510 ,0,1,0.,24.0,0.,24.0,0.,24.0,0.,24.0
1979-08-05 22:11:42.510 ,0,0,0.,24.0,0.,24.0,0.,24.0,0.,24.0
1979-08-05 22:12:06.510 ,1,1,0.,24.0,0.,24.0,0.,24.0,0.,24.0
1979-08-05 22:12:30.510 ,1,0,0.,24.0,0.,24.0,0.,24.0,0.,24.0
1979-08-05 22:12:54.510 ,2,1,0.,24.0,0.,24.0,0.,24.0,0.,24.0
1979-08-05 22:13:18.510 ,2,0,0.,24.0,0.,24.0,0.,24.0,0.,24.0
1979-08-05 22:13:42.510 ,3,1,0.,24.0,0.,24.0,0.,24.0,0.,24.0
1979-08-05 22:14:06.510 ,3,0,0.,24.0,0.,24.0,0.,24.0,0.,24.0
1979-08-05 22:14:30.510 ,4,1,0.,24.0,0.,24.0,0.,24.0,0.,24.0
1979-08-05 22:14:54.510 ,4,0,0.,24.0,0.,24.0,0.,24.0,0.,24.0
1979-08-05 22:15:18.510 ,5,1,0.,24.0,0.,24.0,0.,24.0,0.,24.0
1979-08-05 22:15:42.510 ,5,0,0.,24.0,0.,24.0,0.,24.0,0.,24.0
1979-08-05 22:16:06.510 ,6,1,0.,24.0,0.,24.0,0.,24.0,0.,24.0
1979-08-05 22:16:30.510 ,6,0,0.,24.0,0.,24.0,0.,24.0,0.,24.0
1979-08-05 22:16:54.510 ,7,1,0.,24.0,0.,24.0,0.,24.0,0.,24.0
1979-08-05 22:17:18.510 ,7,0,0.,24.0,0.,24.0,0.,24.0,0.,24.0
1979-08-05 22:17:42.510 ,7,1,0.,24.0,0.,24.0,0.,24.0,0.,24.0
1979-08-05 22:18:06.510 ,7,0,0.,24.0,0.,24.0,0.,24.0,0.,24.0
1979-08-05 22:18:30.510 ,6,1,0.,24.0,0.,24.0,0.,24.0,0.,24.0
1979-08-05 22:18:54.510 ,6,0,0.,24.0,0.,24.0,0.,24.0,0.,24.0
1979-08-05 22:19:18.510 ,5,1,0.,24.0,0.,24.0,0.,24.0,0.,24.0
1979-08-05 22:19:42.510 ,5,0,0.,24.0,0.,24.0,0.,24.0,0.,24.0
1979-08-05 22:20:06.510 ,4,1,0.,24.0,0.,24.0,0.,24.0,0.,24.0
1979-08-05 22:20:30.510 ,4,0,0.,24.0,0.,24.0,0.,24.0,0.,24.0
1979-08-05 22:20:54.510 ,3,1,0.,24.0,0.,24.0,0.,24.0,0.,24.0
1979-08-05 22:21:18.510 ,3,0,0.,24.0,0.,24.0,0.,24.0,0.,24.0
1979-08-05 22:21:42.510 ,2,1,0.,24.0,0.,24.0,0.,24.0,0.,24.0
1979-08-05 22:22:06.510 ,2,0,0.,24.0,0.,24.0,0.,24.0,0.,24.0
1979-08-05 22:22:30.510 ,1,1,0.,24.0,0.,24.0,0.,24.0,0.,24.0
1979-08-05 22:22:54.510 ,1,0,0.,24.0,0.,24.0,0.,24.0,0.,24.0
1979-08-05 22:23:18.510 ,0,1,0.,24.0,0.,24.0,0.,24.0,0.,24.0
1979-08-05 22:23:42.510 ,0,0,0.,24.0,0.,24.0,0.,24.0,0.,24.0
1979-08-05 22:24:06.510 ,0,1,0.,24.0,0.,24.0,0.,24.0,0.,24.0
1979-08-05 22:24:30.510 ,0,0,0.,24.0,0.,24.0,0.,24.0,0.,24.0
1979-08-05 22:24:54.510 ,1,1,0.,24.0,0.,24.0,0.,24.0,0.,24.0
1979-08-05 22:25:18.510 ,1,0,0.,24.0,0.,24.0,0.,24.0,0.,24.0
1979-08-05 22:25:42.510 ,2,1,0.,24.0,0.,24.0,0.,24.0,0.,24.0
1979-08-05 22:26:06.510 ,2,0,0.,24.0,0.,24.0,0.,24.0,0.,24.0
1979-08-05 22:26:30.510 ,3,1,0.,24.0,0.,24.0,0.,24.0,0.,24.0
1979-08-05 22:26:54.510 ,3,0,0.,24.0,0.,24.0,0.,24.0,0.,24.0
1979-08-05 22:27:18.510 ,4,1,0.,24.0,0.,24.0,0.,24.0,0.,24.0
1979-08-05 22:27:42.510 ,4,0,0.,24.0,0.,24.0,0.,24.0,0.,24.0
1979-08-05 22:28:06.510 ,5,1,0.,24.0,0.,24.0,0.,24.0,0.,24.0
1979-08-05 22:28:30.510 ,5,0,0.,24.0,0.,24.0,0.,24.0,0.,24.0
1979-08-05 22:28:54.510 ,6,1,0.,24.0,0.,24.0,0.,24.0,0.,24.0
1979-08-05 22:29:18.510 ,6,0,0.,24.0,0.,24.0,0.,24.0,0.,24.0
1979-08-05 22:29:42.510 ,7,1,0.,24.0,0.,24.0,0.,24.0,0.,24.0
1979-08-05 22:30:06.510 ,7,0,0.,24.0,0.,24.0,0.,24.0,0.,24.0
1979-08-05 22:30:30.510 ,7,1,0.,24.0,0.,24.0,0.,24.0,0.,24.0
1979-08-05 22:30:54.510 ,7,0,0.,24.0,0.,24.0,0.,24.0,0.,24.0
1979-08-05 22:31:18.510 ,6,1,0.,24.0,0.,24.0,0.,24.0,0.,24.0
1979-08-05 22:31:42.510 ,6,0,1.,24.0,0.,24.0,0.,24.0,0.,24.0
1979-08-05 22:32:06.510 ,5,1,0.,24.0,0.,24.0,0.,24.0,0.,24.0
1979-08-05 22:32:30.510 ,5,0,0.,24.0,0.,24.0,0.,24.0,0.,24.0
1979-08-05 22:32:54.510 ,4,1,0.,24.0,0.,24.0,0.,24.0,0.,24.0
1979-08-05 22:33:18.510 ,4,0,0.,24.0,0.,24.0,0.,24.0,0.,24.0
1979-08-05 22:33:42.510 ,3,1,0.,24.0,0.,24.0,0.,24.0,0.,24.0
1979-08-05 22:34:06.510 ,3,0,0.,24.0,0.,24.0,0.,24.0,0.,24.0
1979-08-05 22:34:30.510 ,2,1,0.,24.0,0.,24.0,0.,24.0,0.,24.0
1979-08-05 22:34:54.510 ,2,0,0.,24.0,0.,24.0,0.,24.0,0.,24.0
1979-08-05 22:35:18.510 ,1,1,0.,24.0,0.,24.0,0.,24.0,0.,24.0
1979-08-05 22:35:42.510 ,1,0,0.,24.0,0.,24.0,0.,24.0,0.,24.0
1979-08-05 22:36:06.510 ,0,1,0.,24.0,0.,24.0,0.,24.0,0.,24.0
1979-08-05 22:36:30.510 ,0,0,0.,24.0,0.,24.0,0.,24.0,0.,24.0
1979-08-05 22:36:54.510 ,0,1,0.,24.0,0.,24.0,0.,24.0,0.,24.0
1979-08-05 22:37:18.510 ,0,0,0.,24.0,0.,24.0,0.,24.0,0.,24.0
1979-08-05 22:37:42.510 ,1,1,0.,24.0,0.,24.0,0.,24.0,0.,24.0
1979-08-05 22:38:06.510 ,1,0,0.,24.0,0.,24.0,0.,24.0,0.,24.0
1979-08-05 22:38:30.510 ,2,1,0.,24.0,0.,24.0,0.,24.0,0.,24.0
1979-08-05 22:38:54.510 ,2,0,0.,24.0,0.,24.0,0.,24.0,0.,24.0
1979-08-05 22:39:18.510 ,3,1,0.,24.0,0.,24.0,0.,24.0,0.,24.0
1979-08-05 22:39:42.510 ,3,0,0.,24.0,0.,24.0,0.,24.0,0.,24.0
1979-08-05 22:40:06.510 ,4,1,0.,24.0,0.,24.0,0.,24.0,0.,24.0
1979-08-05 22:40:30.510 ,4,0,0.,24.0,0.,24.0,0.,24.0,0.,24.0
1979-08-05 22:40:54.510 ,5,1,0.,24.0,0.,24.0,0.,24.0,0.,24.0
1979-08-05 22:41:18.510 ,5,0,0.,24.0,0.,24.0,0.,24.0,0.,24.0
1979-08-05 22:41:42.510 ,6,1,0.,24.0,0.,24.0,0.,24.0,0.,24.0
1979-08-05 22:42:06.510 ,6,0,0.,24.0,0.,24.0,0.,24.0,0.,24.0
1979-08-05 22:42:30.510 ,7,0,0.,24.0,0.,24.0,0.,24.0,0.,24.0
1979-08-05 22:42:54.510 ,7,0,0.,24.0,0.,24.0,0.,24.0,0.,24.0
1979-08-05 22:43:18.510 ,5,1,0.,24.0,0.,24.0,0.,24.0,0.,24.0
1979-08-05 22:43:42.510 ,1,1,0.,24.0,0.,24.0,0.,24.0,0.,24.0
1979-08-05 22:44:06.510 ,2,1,0.,24.0,0.,24.0,0.,24.0,0.,24.0
1979-08-05 22:44:30.510 ,6,1,0.,24.0,0.,24.0,0.,24.0,0.,24.0
1979-08-05 22:44:54.510 ,5,1,0.,24.0,0.,24.0,0.,24.0,0.,24.0
1979-08-05 22:45:18.510 ,1,1,0.,24.0,0.,24.0,0.,24.0,0.,24.0
1979-08-05 22:45:42.510 ,2,1,0.,24.0,0.,24.0,0.,24.0,0.,24.0
1979-08-05 22:46:06.510 ,0,0,0.,24.0,0.,24.0,0.,24.0,0.,24.0
1979-08-05 22:46:28.110 ,0,0,,0,,0,,0,,0
1979-08-05 22:46:30.510 ,5,1,0.,24.0,0.,24.0,0.,24.0,0.,24.0
1979-08-05 22:46:54.510 ,1,1,0.,24.0,0.,24.0,0.,24.0,0.,24.0
1979-08-05 22:47:18.510 ,2,1,0.,24.0,0.,24.0,0.,24.0,0.,24.0
1979-08-05 22:47:42.510 ,6,1,0.,24.0,0.,24.0,0.,24.0,0.,24.0
1979-08-05 22:48:06.510 ,5,1,0.,24.0,0.,24.0,0.,24.0,0.,24.0
1979-08-05 22:48:30.510 ,1,1,0.,24.0,0.,24.0,0.,24.0,0.,24.0
1979-08-05 22:48:54.510 ,2,1,0.,24.0,0.,24.0,0.,24.0,0.,24.0
1979-08-05 22:49:18.510 ,6,1,0.,24.0,0.,24.0,0.,24.0,0.,24.0
1979-08-05 22:49:42.510 ,5,1,0.,24.0,0.,24.0,0.,24.0,0.,24.0
1979-08-05 22:50:06.510 ,1,1,0.,24.0,0.,24.0,0.,24.0,0.,24.0
1979-08-05 22:50:30.510 ,2,1,0.,24.0,0.,24.0,0.,24.0,0.,24.0
1979-08-05 22:50:54.510 ,6,1,0.,24.0,0.,24.0,0.,24.0,0.,24.0
1979-08-05 22:51:18.510 ,5,1,0.,24.0,0.,24.0,0.,24.0,0.,24.0
1979-08-05 22:51:42.510 ,1,1,0.,24.0,0.,24.0,0.,24.0,0.,24.0
1979-08-05 22:52:06.510 ,2,1,0.,24.0,0.,24.0,0.,24.0,0.,24.0
1979-08-05 22:52:30.510 ,6,1,0.,24.0,0.,24.0,0.,24.0,0.,24.0
1979-08-05 22:52:54.510 ,5,1,0.,24.0,0.,24.0,0.,24.0,0.,24.0
1979-08-05 22:53:18.510 ,1,1,0.,24.0,0.,24.0,0.,24.0,0.,24.0
1979-08-05 22:53:42.510 ,0,0,0.,24.0,0.,24.0,0.,24.0,0.,24.0
1979-08-05 22:54:06.510 ,0,0,0.,24.0,0.,24.0,0.,24.0,0.,24.0
1979-08-05 22:54:30.510 ,5,1,0.,24.0,0.,24.0,0.,24.0,0.,24.0
1979-08-05 22:54:54.510 ,5,0,0.,24.0,0.,24.0,0.,24.0,0.,24.0
1979-08-05 22:55:18.510 ,4,1,1.,24.0,0.,24.0,0.,24.0,0.,24.0
1979-08-05 22:55:42.510 ,4,0,0.,24.0,0.,24.0,0.,24.0,0.,24.0
1979-08-05 22:56:06.510 ,3,1,0.,24.0,0.,24.0,0.,24.0,0.,24.0
1979-08-05 22:56:30.510 ,3,0,0.,24.0,0.,24.0,0.,24.0,0.,24.0
1979-08-05 22:56:54.510 ,2,1,0.,24.0,0.,24.0,0.,24.0,0.,24.0
1979-08-05 22:57:18.510 ,2,0,0.,24.0,0.,24.0,0.,24.0,0.,24.0
1979-08-05 22:57:42.510 ,1,1,0.,24.0,0.,24.0,0.,24.0,0.,24.0
1979-08-05 22:58:06.510 ,1,0,0.,24.0,0.,24.0,0.,24.0,0.,24.0
1979-08-05 22:58:30.510 ,0,1,0.,24.0,0.,24.0,0.,24.0,0.,24.0
1979-08-05 22:58:54.510 ,0,0,0.,24.0,0.,24.0,0.,24.0,0.,24.0
1979-08-05 22:59:18.510 ,0,1,0.,24.0,0.,24.0,0.,24.0,0.,24.0
1979-08-05 22:59:42.510 ,0,0,0.,24.0,0.,24.0,0.,24.0,0.,24.0
1979-08-05 23:00:06.510 ,1,1,0.,24.0,0.,24.0,0.,24.0,0.,24.0
1979-08-05 23:00:30.510 ,1,0,0.,24.0,0.,24.0,0.,24.0,0.,24.0
1979-08-05 23:00:54.510 ,2,1,0.,24.0,0.,24.0,0.,24.0,0.,24.0
1979-08-05 23:01:18.510 ,2,0,0.,24.0,0.,24.0,0.,24.0,0.,24.0
1979-08-05 23:01:42.510 ,3,1,0.,24.0,0.,24.0,0.,24.0,0.,24.0
1979-08-05 23:02:06.510 ,3,0,0.,24.0,0.,24.0,0.,24.0,0.,24.0
1979-08-05 23:02:30.510 ,4,1,0.,24.0,0.,24.0,0.,24.0,0.,24.0
1979-08-05 23:02:54.510 ,4,0,0.,24.0,0.,24.0,0.,24.0,0.,24.0
1979-08-05 23:03:18.510 ,5,1,0.,24.0,0.,24.0,0.,24.0,0.,24.0
1979-08-05 23:03:42.510 ,5,0,0.,24.0,0.,24.0,0.,24.0,0.,24.0
1979-08-05 23:04:06.510 ,6,1,0.,24.0,0.,24.0,0.,24.0,0.,24.0
1979-08-05 23:04:30.510 ,6,0,0.,24.0,0.,24.0,0.,24.0,0.,24.0
1979-08-05 23:04:55.110 ,7,1,0.,24.0,0.,24.0,0.,24.0,0.,24.0
1979-08-05 23:05:18.510 ,7,0,0.,24.0,0.,24.0,0.,24.0,0.,24.0
1979-08-05 23:05:42.510 ,7,1,0.,24.0,0.,24.0,0.,24.0,0.,24.0
1979-08-05 23:06:06.510 ,7,0,0.,24.0,0.,24.0,0.,24.0,0.,24.0
1979-08-05 23:06:30.510 ,6,1,0.,24.0,0.,24.0,0.,24.0,0.,24.0
1979-08-05 23:06:54.510 ,6,0,1.,24.0,0.,24.0,0.,24.0,0.,24.0
1979-08-05 23:07:18.510 ,5,1,0.,24.0,0.,24.0,0.,24.0,0.,24.0
1979-08-05 23:07:42.510 ,5,0,0.,24.0,0.,24.0,0.,24.0,0.,24.0
1979-08-05 23:08:06.510 ,4,1,0.,24.0,0.,24.0,0.,24.0,0.,24.0
1979-08-05 23:08:30.510 ,4,0,0.,24.0,0.,24.0,0.,24.0,0.,24.0
1979-08-05 23:08:54.510 ,3,1,0.,24.0,0.,24.0,0.,24.0,0.,24.0
1979-08-05 23:09:18.510 ,3,0,0.,24.0,0.,24.0,0.,24.0,0.,24.0
1979-08-05 23:09:42.510 ,2,1,1.,24.0,0.,24.0,0.,24.0,0.,24.0
1979-08-05 23:10:06.510 ,2,0,0.,24.0,0.,24.0,0.,24.0,0.,24.0
1979-08-05 23:10:30.510 ,1,1,0.,24.0,0.,24.0,0.,24.0,0.,24.0
1979-08-05 23:10:54.510 ,1,0,0.,24.0,0.,24.0,0.,24.0,0.,24.0
1979-08-05 23:11:18.510 ,0,1,0.,24.0,0.,24.0,0.,24.0,0.,24.0
1979-08-05 23:11:42.510 ,0,0,0.,24.0,0.,24.0,0.,24.0,0.,24.0
1979-08-05 23:12:06.510 ,0,1,0.,24.0,0.,24.0,0.,24.0,0.,24.0
1979-08-05 23:12:30.510 ,0,0,0.,24.0,0.,24.0,0.,24.0,0.,24.0
1979-08-05 23:12:54.510 ,1,1,0.,24.0,0.,24.0,0.,24.0,0.,24.0
1979-08-05 23:13:18.510 ,1,0,,0,,0,,0,,0
1979-08-05 23:13:42.510 ,2,1,0.,24.0,0.,24.0,0.,24.0,0.,24.0
1979-08-05 23:14:06.510 ,2,0,0.,24.0,0.,24.0,0.,24.0,0.,24.0
1979-08-05 23:14:30.510 ,3,1,0.,24.0,0.,24.0,0.,24.0,0.,24.0
1979-08-05 23:14:54.510 ,3,0,0.,24.0,0.,24.0,0.,24.0,0.,24.0
1979-08-05 23:15:18.510 ,4,1,1.,24.0,0.,24.0,0.,24.0,0.,24.0
1979-08-05 23:15:42.510 ,4,0,0.,24.0,0.,24.0,0.,24.0,0.,24.0
1979-08-05 23:16:06.510 ,5,1,0.,24.0,0.,24.0,0.,24.0,0.,24.0
1979-08-05 23:16:30.510 ,5,0,0.,24.0,0.,24.0,0.,24.0,0.,24.0
1979-08-05 23:16:54.510 ,6,1,0.,24.0,0.,24.0,0.,24.0,0.,24.0
1979-08-05 23:17:42.510 ,7,1,0.,24.0,0.,24.0,0.,24.0,0.,24.0
1979-08-05 23:18:06.510 ,7,0,,0,,0,,0,,0
1979-08-05 23:18:30.510 ,7,1,0.,24.0,0.,24.0,0.,24.0,0.,24.0
1979-08-05 23:18:54.510 ,7,0,0.,24.0,0.,24.0,0.,24.0,0.,24.0
1979-08-05 23:19:18.510 ,6,1,0.,24.0,0.,24.0,0.,24.0,0.,24.0
1979-08-05 23:19:42.510 ,6,0,0.,24.0,0.,24.0,0.,24.0,0.,24.0
1979-08-05 23:20:06.510 ,5,1,0.,24.0,0.,24.0,0.,24.0,0.,24.0
1979-08-05 23:20:30.510 ,5,0,0.,24.0,0.,24.0,0.,24.0,0.,24.0
1979-08-05 23:20:54.510 ,4,1,0.,24.0,0.,24.0,0.,24.0,0.,24.0
1979-08-05 23:21:18.510 ,4,0,,0,,0,,0,,0
1979-08-05 23:21:42.510 ,3,1,0.,24.0,0.,24.0,0.,24.0,0.,24.0
1979-08-05 23:22:06.510 ,3,0,0.,24.0,0.,24.0,0.,24.0,0.,24.0
1979-08-05 23:22:30.510 ,2,1,0.,24.0,0.,24.0,0.,24.0,0.,24.0
1979-08-05 23:22:54.510 ,2,0,0.,24.0,0.,24.0,0.,24.0,0.,24.0
1979-08-05 23:23:18.510 ,1,1,0.,24.0,0.,24.0,0.,24.0,0.,24.0
1979-08-05 23:23:42.510 ,1,0,0.,24.0,0.,24.0,0.,24.0,0.,24.0
1979-08-05 23:24:06.510 ,0,1,0.,24.0,0.,24.0,0.,24.0,0.,24.0
1979-08-05 23:24:30.510 ,0,0,0.,24.0,0.,24.0,0.,24.0,0.,24.0
1979-08-05 23:24:54.510 ,0,1,0.,24.0,0.,24.0,0.,24.0,0.,24.0
1979-08-05 23:25:18.510 ,0,0,0.,24.0,0.,24.0,0.,24.0,0.,24.0
1979-08-05 23:25:42.510 ,1,1,0.,24.0,0.,24.0,0.,24.0,0.,24.0
1979-08-05 23:26:06.510 ,1,0,0.,24.0,0.,24.0,0.,24.0,0.,24.0
1979-08-05 23:26:30.510 ,2,1,0.,24.0,0.,24.0,0.,24.0,0.,24.0
1979-08-05 23:26:54.510 ,2,0,0.,24.0,0.,24.0,0.,24.0,0.,24.0
1979-08-05 23:27:18.510 ,3,1,0.,24.0,0.,24.0,0.,24.0,0.,24.0
1979-08-05 23:27:42.510 ,3,0,0.,24.0,0.,24.0,0.,24.0,0.,24.0
1979-08-05 23:28:06.510 ,4,1,0.,24.0,0.,24.0,0.,24.0,0.,24.0
1979-08-05 23:28:30.510 ,4,0,0.,24.0,0.,24.0,0.,24.0,0.,24.0
1979-08-05 23:28:54.510 ,5,1,0.,24.0,0.,24.0,0.,24.0,0.,24.0
1979-08-05 23:29:18.510 ,5,0,0.,24.0,0.,24.0,0.,24.0,0.,24.0
1979-08-05 23:29:42.510 ,6,1,0.,24.0,0.,24.0,0.,24.0,0.,24.0
1979-08-05 23:30:06.510 ,6,0,0.,24.0,0.,24.0,0.,24.0,0.,24.0
1979-08-05 23:30:30.510 ,7,0,0.,24.0,0.,24.0,0.,24.0,0.,24.0
1979-08-05 23:30:54.510 ,7,0,0.,24.0,0.,24.0,0.,24.0,0.,24.0
1979-08-05 23:31:18.510 ,5,1,0.,24.0,0.,24.0,0.,24.0,0.,24.0
1979-08-05 23:31:42.510 ,1,1,0.,24.0,0.,24.0,0.,24.0,0.,24.0
1979-08-05 23:32:06.510 ,2,1,0.,24.0,0.,24.0,0.,24.0,0.,24.0
1979-08-05 23:32:30.510 ,6,1,0.,24.0,0.,24.0,0.,24.0,0.,24.0
1979-08-05 23:32:54.510 ,5,1,0.,24.0,0.,24.0,0.,24.0,0.,24.0
1979-08-05 23:33:18.510 ,1,1,0.,24.0,0.,24.0,0.,24.0,0.,24.0
1979-08-05 23:33:42.510 ,2,1,0.,24.0,0.,24.0,0.,24.0,0.,24.0
1979-08-05 23:34:06.510 ,6,1,0.,24.0,0.,24.0,0.,24.0,0.,24.0
1979-08-05 23:34:30.500 ,5,1,0.,24.0,0.,24.0,0.,24.0,0.,24.0
1979-08-05 23:34:54.500 ,1,1,0.,24.0,0.,24.0,0.,24.0,0.,24.0